Satellite: AAUSAT2
Catalog number: 32788
Epoch time:      08191.94223214
Element set:    0093
Inclination:      097.9882 deg
RA of node:       251.7816 deg
Eccentricity:    0.0017185
Arg of perigee:   068.6965 deg
Mean anomaly:     291.6061 deg
Mean motion:   14.81541325 rev/day
Decay rate:       3.56e-06 rev/day^2
Epoch rev:           01077
Checksum:              320

Satellite: DO-64
Catalog number: 32789
Epoch time:      08192.82653122
Element set:      98
Inclination:      097.9917 deg
RA of node:       252.6784 deg
Eccentricity:    0.0016969
Arg of perigee:   062.8150 deg
Mean anomaly:     297.4782 deg
Mean motion:   14.81425241 rev/day
Decay rate:       2.15e-06 rev/day^2
Epoch rev:            1090
Checksum:              333

Satellite: SEEDS
Catalog number: 32791
Epoch time:      08191.34644650
Element set:    0089
Inclination:      097.9917 deg
RA of node:       251.1892 deg
Eccentricity:    0.0017453
Arg of perigee:   065.8698 deg
Mean anomaly:     294.4347 deg
Mean motion:   14.81290055 rev/day
Decay rate:       3.44e-06 rev/day^2
Epoch rev:           01065
Checksum:              322

Satellite: CANX-2
Catalog number: 32797
Epoch time:      08191.12513628
Element set:    0042
Inclination:      097.9928 deg
RA of node:       251.0314 deg
Eccentricity:    0.0018832
Arg of perigee:   071.3703 deg
Mean anomaly:     288.9466 deg
Mean motion:   14.81819372 rev/day
Decay rate:      1.593e-05 rev/day^2
Epoch rev:           00933
Checksum:              315

Satellite: RS-30
Catalog number: 32953
Epoch time:      08192.59097477
Element set:      52
Inclination:      082.5026 deg
RA of node:       109.0384 deg
Eccentricity:    0.0017778
Arg of perigee:   201.6239 deg
Mean anomaly:     158.4089 deg
Mean motion:   12.42996762 rev/day
Decay rate:        1.0e-07 rev/day^2
Epoch rev:             595
Checksum:              315

/EX





More information about the Keps mailing list